Location: Bottens
(46.6171°N, 6.6605°E)
Time: 20:03:26
(UTC+00:00)

Cosmos 1898 Rocket - Pass Details

Date: 20 June 2021
Orbit: 754 x 783 km, 74.0° (Epoch: 31 July)

Event Time Altitude Azimuth Distance (km) Brightness Sun altitude
Rises 00:25:59 0° 337° (NNW) 3,249 7.6 -19.0°
Reaches altitude 10° 00:28:23 10° 336° (NNW) 2,313 6.7 -18.9°
Maximum altitude 00:33:38 80° 250° (WSW) 778 3.4 -18.7°
Enters shadow 00:36:08 31° 167° (SSE) 1,299 4.2 -18.6°
